Regional Weather Roundup
Issued by NWS

Home | Current Version | Previous Version | Text Only | Print | Product List | Glossary Off
Versions: 1 2 3 4 5 6 7 8 9 10 11 12 13 14 15 16 17 18 19 20 21 22 23 24 25 26 27 28 29 30 31 32 33 34 35 36 37 38 39 40 41 42 43 44 45 46 47 48 49 50

000
ASUS43 KLOT 260300
RWRIL

ILLINOIS REGIONAL WEATHER ROUNDUP
NATIONAL WEATHER SERVICE CHICAGO/ROMEOVILLE IL
900 PM CST THU DEC 25 2014

NOTE: "FAIR" INDICATES FEW OR NO CLOUDS BELOW 12,000 FEET WITH NO
SIGNIFICANT WEATHER AND/OR OBSTRUCTIONS TO VISIBILITY.

* THESE STATIONS ARE NOT UNDER NWS QUALITY CONTROL. THEY ALSO MAY NOT
  REPORT WEATHER SUCH AS PRECIPITATION OR FOG.

ILZ001-002-007-009-015-016-024-260400-
NORTHWEST ILLINOIS

CITY           SKY/WX    TMP DP  RH WIND       PRES   REMARKS
MOLINE         PTCLDY    40  33  76 SE10      29.91R
STERLING*      CLOUDY    39  34  81 S6        29.95R WCI  35
$$

ILZ003-004-008-010-011-017-018-260400-
NORTH CENTRAL ILLINOIS

CITY           SKY/WX    TMP DP  RH WIND       PRES   REMARKS
ROCKFORD       MOCLDY    39  33  79 S13       29.97R WCI  31
FREEPORT*      CLOUDY    37  33  88 S12       29.95R WCI  29
$$

ILZ005-006-012>014-019>023-260400-
NORTHEAST ILLINOIS

CITY           SKY/WX    TMP DP  RH WIND       PRES   REMARKS
CHICAGO-OHARE  CLOUDY    40  34  79 S15       29.97F
CHICAGO-MIDWAY MOCLDY    42  34  73 S14       29.99F
AURORA         MOCLDY    39  33  79 S13       29.99R WCI  31
WAUKEGAN       CLOUDY    40  34  79 S17       29.96S
DUPAGE AIRPORT MOCLDY    38  34  85 S13       29.97S WCI  30
WHEELING       CLOUDY    40  34  79 S16       29.99F
NORTHERLY ISL    N/A     40  33  76 S8          N/A
$$

LMZ740>746-260400-
SOUTHERN LAKE MICHIGAN

STATION/POSITION SKY/WX   TEMP    WIND        PRES    VSBY  WAVE
                          AIR SEA DIR/SP/G                  HT/PER
                          (F)     (DEG/KT/KT) (MB)    (MI)  (FT/S)
WAUKEGAN HARBOR            41                   N/A
HARRISON CRIB              40     180/ 25/ 28   N/A
BURNHAM HARBOR             40     170/  9/ 15   N/A
CALUMET HARBOR             39     170/ 11/ 16 1015.1F
MICHIGAN CITY              38     140/ 12/ 16   N/A
$$

ILZ025>027-034>036-040-047-049-050-058-095>099-260400-
WEST-CENTRAL ILLINOIS

CITY           SKY/WX    TMP DP  RH WIND       PRES   REMARKS
QUINCY         MOCLDY    45  30  55 S16G22    29.89R
MACOMB*        PTCLDY    40  35  82 S12       29.94R
$$

ILZ028>032-037-038-041>044-048-051>054-059>061-260400-
CENTRAL ILLINOIS

CITY           SKY/WX    TMP DP  RH WIND       PRES   REMARKS
DECATUR        MOCLDY    41  33  73 S17       30.01F
PEORIA         PTCLDY    42  33  70 S14G23    29.97R
LINCOLN*       CLOUDY    42  35  77 S13G21    29.99R
SPRINGFIELD    MOCLDY    43  35  73 S17       29.98R
TAYLORVILLE    NOT AVBL
$$

ILZ033-039-045-046-055>057-062-063-260400-
EAST-CENTRAL ILLINOIS

CITY           SKY/WX    TMP DP  RH WIND       PRES   REMARKS
CHAMPAIGN      MOCLDY    39  33  79 S18       30.02F WCI  30
DANVILLE*      MOCLDY    37  33  86 S10       30.03S WCI  30
MATTOON        PTCLDY    38  33  82 S10       30.05R WCI  31
$$

ILZ079-100>102-260400-
SOUTHWEST ILLINOIS

CITY           SKY/WX    TMP DP  RH WIND       PRES   REMARKS
ALTON          CLEAR     43  36  75 S16G25    30.00S
BELLEVILLE     CLEAR     42  38  84 S12       30.02R
CAHOKIA*       CLEAR     44  37  76 S12       30.00S
SPARTA*        CLEAR     40  35  81 S9        30.05S
$$

ILZ064>066-069>071-074>076-080>082-084>086-088>090-092>094-260400-
SOUTH-CENTRAL ILLINOIS

CITY           SKY/WX    TMP DP  RH WIND       PRES   REMARKS
CARBONDALE     CLEAR     41  32  70 S10       30.07F
MT. VERNON     CLEAR     41  30  65 S8        30.08S
SALEM*         CLEAR     44  34  67 S9        30.06S
$$

ILZ067-068-072-073-078-083-087-091-260400-
SOUTHEAST ILLINOIS

CITY           SKY/WX    TMP DP  RH WIND       PRES   REMARKS
LAWRENCEVILLE  CLEAR     38  33  82 S12       30.11S WCI  30
ROBINSON*      CLEAR     36  33  87 S8        30.11S WCI  30
CARMI*         CLEAR     39  36  89 S8        30.11R WCI  33
$$

ABBREVIATIONS USED IN REMARKS
   TC - TEMPERATURE IN CELSIUS
  WCI - WIND CHILL INDEX
   HX - HEAT INDEX
  VSB - VISIBILITY
$$



USA.gov is the U.S. government's official web portal to all federal, state and local government web resources and services.